Time,TemperatureF,DewpointF,PressureIn,WindDirection,WindDirectionDegrees,WindSpeedMPH,WindSpeedGustMPH,Humidity,HourlyPrecipIn,Conditions,Clouds,dailyrainin,SoftwareType,DateUTC
2013-10-06 00:00:00,79.3,68.2,29.88,NW,315,0.0,-999.0,69,-99.99,,,0.00,Acu-Link.com,2013-10-06 10:00:00,
2013-10-06 00:16:00,79.3,68.2,29.86,NW,315,0.0,-999.0,69,-99.99,,,0.00,Acu-Link.com,2013-10-06 10:16:00,
2013-10-06 00:31:00,79.3,68.2,29.85,NW,315,0.0,-999.0,69,-99.99,,,0.00,Acu-Link.com,2013-10-06 10:31:00,
2013-10-06 00:46:00,79.3,68.2,29.85,NW,315,0.0,-999.0,69,-99.99,,,0.00,Acu-Link.com,2013-10-06 10:46:00,
2013-10-06 01:02:00,79.3,68.2,29.86,NW,315,0.0,-999.0,69,-99.99,,,0.00,Acu-Link.com,2013-10-06 11:02:00,
2013-10-06 01:17:00,79.3,68.6,29.86,NW,315,0.0,-999.0,70,-99.99,,,0.00,Acu-Link.com,2013-10-06 11:17:00,
2013-10-06 01:32:00,79.3,68.6,29.85,NW,315,0.0,-999.0,70,-99.99,,,0.00,Acu-Link.com,2013-10-06 11:32:00,
2013-10-06 01:47:00,79.3,68.6,29.83,NW,315,0.0,-999.0,70,-99.99,,,0.00,Acu-Link.com,2013-10-06 11:47:00,
2013-10-06 02:02:00,79.2,68.6,29.83,NW,315,0.0,-999.0,70,-99.99,,,0.00,Acu-Link.com,2013-10-06 12:02:00,
2013-10-06 02:18:00,79.2,68.6,29.84,NW,315,0.0,-999.0,70,-99.99,,,0.00,Acu-Link.com,2013-10-06 12:18:00,
2013-10-06 02:33:00,79.2,68.6,29.82,NW,315,0.0,-999.0,70,-99.99,,,0.00,Acu-Link.com,2013-10-06 12:33:00,
2013-10-06 02:48:00,79.0,68.4,29.82,NW,315,0.0,-999.0,70,-99.99,,,0.00,Acu-Link.com,2013-10-06 12:48:00,
2013-10-06 03:04:00,79.0,68.4,29.82,NW,315,0.0,-999.0,70,-99.99,,,0.00,Acu-Link.com,2013-10-06 13:04:00,
2013-10-06 03:19:00,79.0,68.4,29.82,NW,315,0.0,-999.0,70,-99.99,,,0.00,Acu-Link.com,2013-10-06 13:19:00,
2013-10-06 03:34:00,79.0,68.4,29.82,NW,315,0.0,-999.0,70,-99.99,,,0.00,Acu-Link.com,2013-10-06 13:34:00,
2013-10-06 03:49:00,78.8,68.2,29.81,NW,315,0.0,-999.0,70,-99.99,,,0.00,Acu-Link.com,2013-10-06 13:49:00,
2013-10-06 04:05:00,78.8,68.2,29.82,NW,315,0.0,-999.0,70,-99.99,,,0.00,Acu-Link.com,2013-10-06 14:05:00,
2013-10-06 04:20:00,78.8,68.2,29.81,NW,315,0.0,-999.0,70,-99.99,,,0.00,Acu-Link.com,2013-10-06 14:20:00,
2013-10-06 04:35:00,78.8,68.2,29.84,NW,315,0.0,-999.0,70,-99.99,,,0.00,Acu-Link.com,2013-10-06 14:35:00,
2013-10-06 04:50:00,78.8,68.2,29.84,NW,315,0.0,-999.0,70,-99.99,,,0.00,Acu-Link.com,2013-10-06 14:50:00,
2013-10-06 05:06:00,78.6,68.0,29.81,NW,315,0.0,-999.0,70,-99.99,,,0.00,Acu-Link.com,2013-10-06 15:06:00,
2013-10-06 05:21:00,78.6,68.0,29.83,NW,315,0.0,-999.0,70,-99.99,,,0.00,Acu-Link.com,2013-10-06 15:21:00,
2013-10-06 05:36:00,78.6,68.0,29.82,NW,315,0.0,-999.0,70,-99.99,,,0.00,Acu-Link.com,2013-10-06 15:36:00,
2013-10-06 05:52:00,78.4,67.8,29.82,NW,315,0.0,-999.0,70,-99.99,,,0.00,Acu-Link.com,2013-10-06 15:52:00,
2013-10-06 06:07:00,78.4,67.8,29.82,NW,315,0.0,-999.0,70,-99.99,,,0.00,Acu-Link.com,2013-10-06 16:07:00,
2013-10-06 06:22:00,78.4,67.8,29.83,NW,315,0.0,-999.0,70,-99.99,,,0.00,Acu-Link.com,2013-10-06 16:22:00,
2013-10-06 06:37:00,78.4,67.8,29.83,NW,315,0.0,-999.0,70,-99.99,,,0.00,Acu-Link.com,2013-10-06 16:37:00,
2013-10-06 09:27:00,78.3,67.7,29.88,NW,315,0.0,-999.0,70,-99.99,,,0.00,Acu-Link.com,2013-10-06 19:27:00,
2013-10-06 09:42:00,78.3,67.7,29.87,NW,315,0.0,-999.0,70,-99.99,,,0.00,Acu-Link.com,2013-10-06 19:42:00,
2013-10-06 09:58:00,78.3,67.7,29.86,NW,315,0.0,-999.0,70,-99.99,,,0.00,Acu-Link.com,2013-10-06 19:58:00,
2013-10-06 10:13:00,78.3,67.7,29.87,NW,315,0.0,-999.0,70,-99.99,,,0.00,Acu-Link.com,2013-10-06 20:13:00,
2013-10-06 10:28:00,78.3,68.1,29.86,NW,315,0.0,-999.0,71,-99.99,,,0.00,Acu-Link.com,2013-10-06 20:28:00,
2013-10-06 10:43:00,78.3,68.1,29.86,NW,315,0.0,-999.0,71,-99.99,,,0.00,Acu-Link.com,2013-10-06 20:43:00,
2013-10-06 10:59:00,78.3,68.1,29.87,NW,315,0.0,-999.0,71,-99.99,,,0.00,Acu-Link.com,2013-10-06 20:59:00,
2013-10-06 11:14:00,78.4,68.2,29.85,NW,315,0.0,-999.0,71,-99.99,,,0.00,Acu-Link.com,2013-10-06 21:14:00,
2013-10-06 11:29:00,78.4,68.2,29.85,NW,315,0.0,-999.0,71,-99.99,,,0.00,Acu-Link.com,2013-10-06 21:29:00,
2013-10-06 11:44:00,78.6,68.4,29.84,NW,315,0.0,-999.0,71,-99.99,,,0.00,Acu-Link.com,2013-10-06 21:44:00,
2013-10-06 11:59:00,78.6,68.4,29.84,NW,315,0.0,-999.0,71,-99.99,,,0.00,Acu-Link.com,2013-10-06 21:59:00,
2013-10-06 12:15:00,78.8,68.6,29.84,NW,315,0.0,-999.0,71,-99.99,,,0.00,Acu-Link.com,2013-10-06 22:15:00,
2013-10-06 12:30:00,78.8,68.6,29.84,NW,315,0.0,-999.0,71,-99.99,,,0.00,Acu-Link.com,2013-10-06 22:30:00,
2013-10-06 12:45:00,79.2,69.8,29.82,NW,315,0.0,-999.0,73,-99.99,,,0.00,Acu-Link.com,2013-10-06 22:45:00,
2013-10-06 13:00:00,79.2,69.8,29.82,NW,315,0.0,-999.0,73,-99.99,,,0.00,Acu-Link.com,2013-10-06 23:00:00,
2013-10-06 13:16:00,79.2,69.8,29.82,NW,315,0.0,-999.0,73,-99.99,,,0.00,Acu-Link.com,2013-10-06 23:16:00,
2013-10-06 13:31:00,79.2,69.4,29.80,NW,315,0.0,-999.0,72,-99.99,,,0.00,Acu-Link.com,2013-10-06 23:31:00,
2013-10-06 13:46:00,79.2,69.4,29.82,NW,315,0.0,-999.0,72,-99.99,,,0.00,Acu-Link.com,2013-10-06 23:46:00,
2013-10-06 14:02:00,79.3,69.5,29.81,NW,315,0.0,-999.0,72,-99.99,,,0.00,Acu-Link.com,2013-10-07 00:02:00,
2013-10-06 14:17:00,79.3,69.1,29.79,NW,315,0.0,-999.0,71,-99.99,,,0.00,Acu-Link.com,2013-10-07 00:17:00,
2013-10-06 14:32:00,79.5,69.3,29.80,NW,315,0.0,-999.0,71,-99.99,,,0.00,Acu-Link.com,2013-10-07 00:32:00,
2013-10-06 14:47:00,79.5,68.8,29.79,NW,315,0.0,-999.0,70,-99.99,,,0.00,Acu-Link.com,2013-10-07 00:47:00,
2013-10-06 15:03:00,79.5,68.8,29.78,NW,315,0.0,-999.0,70,-99.99,,,0.00,Acu-Link.com,2013-10-07 01:03:00,
2013-10-06 15:18:00,79.5,68.4,29.78,NW,315,0.0,-999.0,69,-99.99,,,0.00,Acu-Link.com,2013-10-07 01:18:00,
2013-10-06 15:33:00,79.5,68.4,29.77,NW,315,0.0,-999.0,69,-99.99,,,0.00,Acu-Link.com,2013-10-07 01:33:00,
2013-10-06 15:48:00,79.5,68.4,29.78,NW,315,0.0,-999.0,69,-99.99,,,0.00,Acu-Link.com,2013-10-07 01:48:00,
2013-10-06 16:04:00,79.3,68.2,29.79,NW,315,0.0,-999.0,69,-99.99,,,0.00,Acu-Link.com,2013-10-07 02:04:00,
2013-10-06 16:19:00,79.3,68.2,29.78,NW,315,0.0,-999.0,69,-99.99,,,0.00,Acu-Link.com,2013-10-07 02:19:00,
2013-10-06 16:34:00,79.3,68.2,29.78,NW,315,0.0,-999.0,69,-99.99,,,0.00,Acu-Link.com,2013-10-07 02:34:00,
2013-10-06 16:50:00,79.3,68.2,29.80,NW,315,0.0,-999.0,69,-99.99,,,0.00,Acu-Link.com,2013-10-07 02:50:00,
2013-10-06 17:05:00,79.3,68.2,29.78,NW,315,0.0,-999.0,69,-99.99,,,0.00,Acu-Link.com,2013-10-07 03:05:00,
2013-10-06 17:20:00,79.3,68.2,29.79,NW,315,0.0,-999.0,69,-99.99,,,0.00,Acu-Link.com,2013-10-07 03:20:00,
2013-10-06 17:35:00,79.3,68.2,29.81,NW,315,0.0,-999.0,69,-99.99,,,0.00,Acu-Link.com,2013-10-07 03:35:00,
2013-10-06 19:18:00,79.3,69.5,29.85,NW,315,0.0,-999.0,72,-99.99,,,0.00,Acu-Link.com,2013-10-07 05:18:00,
2013-10-06 19:33:00,79.3,69.5,29.84,NW,315,0.0,-999.0,72,-99.99,,,0.00,Acu-Link.com,2013-10-07 05:33:00,
2013-10-06 19:50:00,79.3,69.5,29.84,NW,315,0.0,-999.0,72,-99.99,,,0.00,Acu-Link.com,2013-10-07 05:50:00,
2013-10-06 20:05:00,79.3,69.5,29.86,NW,315,0.0,-999.0,72,-99.99,,,0.00,Acu-Link.com,2013-10-07 06:05:00,
2013-10-06 20:21:00,79.3,69.5,29.87,NW,315,0.0,-999.0,72,-99.99,,,0.00,Acu-Link.com,2013-10-07 06:21:00,
2013-10-06 20:37:00,79.3,69.5,29.86,NW,315,0.0,-999.0,72,-99.99,,,0.00,Acu-Link.com,2013-10-07 06:37:00,
2013-10-06 20:52:00,79.3,69.5,29.86,NW,315,0.0,-999.0,72,-99.99,,,0.00,Acu-Link.com,2013-10-07 06:52:00,
2013-10-06 21:08:00,79.3,69.5,29.87,NW,315,0.0,-999.0,72,-99.99,,,0.00,Acu-Link.com,2013-10-07 07:08:00,
2013-10-06 21:24:00,79.3,69.5,29.85,NW,315,0.0,-999.0,72,-99.99,,,0.00,Acu-Link.com,2013-10-07 07:24:00,
2013-10-06 21:41:00,79.3,69.5,29.86,NW,315,0.0,-999.0,72,-99.99,,,0.00,Acu-Link.com,2013-10-07 07:41:00,
2013-10-06 21:56:00,79.3,69.5,29.86,NW,315,0.0,-999.0,72,-99.99,,,0.00,Acu-Link.com,2013-10-07 07:56:00,
2013-10-06 22:12:00,79.3,69.5,29.86,NW,315,0.0,-999.0,72,-99.99,,,0.00,Acu-Link.com,2013-10-07 08:12:00,
2013-10-06 22:27:00,79.3,69.5,29.88,NW,315,0.0,-999.0,72,-99.99,,,0.00,Acu-Link.com,2013-10-07 08:27:00,
2013-10-06 22:42:00,79.3,69.5,29.88,NW,315,0.0,-999.0,72,-99.99,,,0.00,Acu-Link.com,2013-10-07 08:42:00,
2013-10-06 22:58:00,79.3,69.5,29.86,NW,315,0.0,-999.0,72,-99.99,,,0.00,Acu-Link.com,2013-10-07 08:58:00,
2013-10-06 23:13:00,79.3,69.5,29.88,NW,315,0.0,-999.0,72,-99.99,,,0.00,Acu-Link.com,2013-10-07 09:13:00,
2013-10-06 23:28:00,79.3,69.5,29.88,NW,315,0.0,-999.0,72,-99.99,,,0.00,Acu-Link.com,2013-10-07 09:28:00,
2013-10-06 23:43:00,79.3,69.9,29.88,NW,315,0.0,-999.0,73,-99.99,,,0.00,Acu-Link.com,2013-10-07 09:43:00,
2013-10-06 23:59:00,79.3,69.9,29.88,NW,315,0.0,-999.0,73,-99.99,,,0.00,Acu-Link.com,2013-10-07 09:59:00,